Regional Weather Roundup
Issued by NWS Cleveland, OH

Home | Current Version | Previous Version | Graphics & Text | Print | Product List | Glossary On
Versions: 1 2 3 4 5 6 7 8 9 10 11 12 13 14 15 16 17 18 19 20 21 22 23 24 25 26 27 28 29 30 31 32 33 34 35 36 37 38 39 40 41 42 43 44 45 46 47 48 49 50
000
ASUS41 KCLE 160610
RWRCLE
OHIO REGIONAL WEATHER ROUNDUP
NATIONAL WEATHER SERVICE WILMINGTON, OH
200 AM EDT TUE SEP 16 2014

NOTE: "FAIR" INDICATES FEW OR NO CLOUDS BELOW 12,000 FEET WITH NO
SIGNIFICANT WEATHER AND/OR OBSTRUCTIONS TO VISIBILITY.

OHZ001>008-015>018-024>027-034-035-043-044-160700-
   NORTHWEST OHIO

CITY           SKY/WX    TMP DP  RH WIND       PRES   REMARKS
DEFIANCE       CLOUDY    53  51  93 CALM      30.13R FOG
FINDLAY        CLOUDY    53  51  93 MISG      30.10F FOG
TOLEDO EXPRESS CLOUDY    52  52 100 W8        30.11R FOG
TOLEDO METCALF MOCLDY    52  50  93 W3        30.12R FOG
LIMA           MOCLDY    52  50  93 NW3       30.11S FOG
$$

OHZ009>014-019>023-028>033-038-089-160700-
   NORTHEAST OHIO

CITY           SKY/WX    TMP DP  RH WIND       PRES   REMARKS
CLE-HOPKINS    CLOUDY    54  52  93 W3        30.10S
CLE-LAKEFRONT  CLOUDY    58  49  72 NW7       30.06F
CUY CO. ARPT   NOT AVBL
LORAIN-ELYRIA  MOCLDY    58  53  84 W3        30.09S
ASHTABULA      CLOUDY    53  51  93 NW3       30.08S
AKRON-CANTON   RAIN      57  54  89 NW5       30.07S FOG
WOOSTER        CLOUDY    56  54  93 NW5       30.09S
MANSFIELD      CLOUDY    53  53 100 NW8       30.10R
YOUNGSTOWN     LGT RAIN  54  52  93 N5        30.07R
$$

OHZ042-051>053-060>062-070>072-077>081-160700-
  SOUTHWEST OHIO

CITY           SKY/WX    TMP DP  RH WIND       PRES   REMARKS
CINC-COVINGTON DRIZZLE   59  56  89 NE7       30.10S
CINC-LUNKEN    CLOUDY    59  58  96 NE7       30.11F
HAMILTON       LGT RAIN  58  57  97 VRB3      30.12S FOG
DAYTON         CLOUDY    57  56  96 N5        30.12F FOG
WRIGHT-PAT AFB LGT RAIN  58  56  95 NW5       30.11F
DAYTON GENERAL CLOUDY    58  56  93 N5        30.11R
WILMINGTON     LGT RAIN  57  55  93 N6        30.10F FOG
$$

OHZ036-037-039>041-045>050-054>059-063>069-073>076-082>088-160700-
  CENTRAL AND SOUTHEAST OHIO

CITY           SKY/WX    TMP DP  RH WIND       PRES   REMARKS
COLUMBUS       CLOUDY    59  54  82 N5        30.10S
OSU AIRPORT    CLOUDY    56  53  90 N3        30.11R
BOLTON FIELD   CLOUDY    56  55  94 N6        30.11R
RICKENBACK AFB CLOUDY    58  56  92 N6        30.10R
NEWARK         CLOUDY    58  55  90 NW5       30.10R
MARION         CLOUDY    55  52  89 N7        30.11S
LANCASTER      CLOUDY    59  56  89 NW5       30.11R FOG
ZANESVILLE     LGT RAIN  58  53  84 NW3       30.09R
NEW PHILLY     RAIN      57  56  96 W3        30.09R FOG
$$


USA.gov is the U.S. government's official web portal to all federal, state and local government web resources and services.